Regional Weather Roundup
Issued by NWS

Home | Current Version | Previous Version | Graphics & Text | Print | Product List | Glossary On
Versions: 1 2 3 4 5 6 7 8 9 10 11 12 13 14 15 16 17 18 19 20 21 22 23 24 25 26 27 28 29 30 31 32 33 34 35 36 37 38 39 40 41 42 43 44 45 46 47 48 49 50
000
ASUS43 KOAX 020110
RWRNE

WEATHER ROUNDUP FOR NEBRASKA
NATIONAL WEATHER SERVICE OMAHA NE
700 PM CST SUN FEB 01 2015

NOTES: SATELLITE DATA IS BEING USED TO AUGMENT CLOUD COVER ABOVE
       12000 FEET.
       "FAIR" INDICATES FEW OR NO CLOUDS BELOW 12,000 FEET WITH NO
       SIGNIFICANT WEATHER AND/OR OBSTRUCTIONS TO VISIBILITY.

  * THESE STATIONS DO NOT REPORT WEATHER SUCH AS RAIN...SNOW OR FOG.

NEZ001>004-019>022-054>056-020200-
NEBRASKA PANHANDLE

CITY           SKY/WX    TMP DP  RH WIND       PRES   REMARKS
SCOTTSBLUFF    CLEAR      9   7  92 E8        30.19F WCI  -3
ALLIANCE       PTCLDY     0  -3  87 E3        30.18F
CHADRON        CLEAR      6   3  87 CALM      30.21F
KIMBALL        CLEAR     11   7  84 CALM      30.12F
SIDNEY         PTCLDY     4   0  83 NE3       30.20F
$$

NEZ057>060-069>072-079>082-020200-
SOUTHWEST NEBRASKA

CITY           SKY/WX    TMP DP  RH WIND       PRES   REMARKS
NORTH PLATTE   PTCLDY     3  -3  76 NW8       30.31R WCI -10
IMPERIAL       CLEAR      8   1  73 NW7       30.28R WCI  -3
LEXINGTON      CLEAR      7   0  74 NW13      30.31R WCI -10
MCCOOK         CLEAR     11   1  64 NW15      30.32R WCI  -5
OGALLALA       CLEAR      4  -2  77 NW6       30.27F WCI  -7
$$

NEZ005>010-023>029-035>040-094-020200-
NORTH CENTRAL NEBRASKA

CITY           SKY/WX    TMP DP  RH WIND       PRES   REMARKS
VALENTINE      MOCLDY    -8 -12  83 SW7       30.30F WCI -23
AINSWORTH      PTCLDY     1  -4  80 NW7       30.30S WCI -12
BROKEN BOW     CLEAR      4  -3  73 N17       30.29R WCI -16
O`NEILL        CLEAR      1  -4  79 NW10      30.34R WCI -15
ORD            CLEAR      3  -5  69 NW16      30.33R WCI -16
THEDFORD       PTCLDY     1  -4  82 N3        30.28S
$$

NEZ041-046>049-061>064-073>077-083>087-020200-
SOUTH CENTRAL NEBRASKA

CITY           SKY/WX    TMP DP  RH WIND       PRES   REMARKS
GRAND ISLAND   CLEAR      4  -2  76 NW22G29   30.32R WCI -18
AURORA         PTCLDY     5   0  78 N22       30.30R WCI -16
HASTINGS       PTCLDY     5   0  79 N22       30.29R WCI -16
HEBRON         PTCLDY     7   1  75 NW12G17   30.31R WCI  -8
HOLDREGE       CLEAR      7  -1  71 N15G21    30.30R WCI -11
KEARNEY *      CLEAR      7   0  72 NW15      30.31R WCI -11
YORK           FLURRIES   7   1  78 N13G21    30.30R WCI  -9
$$

NEZ011>018-030>034-042>045-020200-
NORTHEAST NEBRASKA

CITY           SKY/WX    TMP DP  RH WIND       PRES   REMARKS
NORFOLK        CLOUDY     4  -2  76 NW18      30.30R BLWGSNOWWCI -16
ALBION         PTCLDY     3  -4  72 N17       30.31R WCI -16
BLAIR          MOCLDY     9   4  79 NW18      30.24R HAZE    WCI  -9
FREMONT          N/A      8   3  82 NW23G29   30.29R FOG     WCI -13
TEKAMAH        MOCLDY     8   3  80 NW18      30.29R WCI -11
WAYNE          PTCLDY     4  -2  77 NW16      30.32R WCI -15
$$

NEZ050>053-065>068-078-088>093-020200-
SOUTHEAST NEBRASKA

CITY           SKY/WX    TMP DP  RH WIND       PRES   REMARKS
LINCOLN        CLOUDY     7   1  76 N21       30.30R BLWGSNOWWCI -13
OMAHA EPPLEY   MOCLDY    11   6  81 N24G32    30.26R BLWGSNOWWCI  -9
BEATRICE       CLOUDY     7   2  81 N17       30.28R HAZE    WCI -11
FALLS CITY     LGT SNOW  13   7  77 NW18G29   30.20R WCI  -4
NEBRASKA CITY  LGT SNOW  11   6  81 N17G26    30.21R WCI  -6
PLATTSMOUTH    CLOUDY    10   5  80 NW18G28   30.22R HAZE    WCI  -8
$$

NEZ044-045-051>053-067-020200-
OMAHA AREA

CITY           SKY/WX    TMP DP  RH WIND       PRES   REMARKS
OMAHA EPPLEY   MOCLDY    11   6  81 N24G32    30.26R BLWGSNOWWCI  -9
BLAIR          MOCLDY     9   4  79 NW18      30.24R HAZE    WCI  -9
FREMONT          N/A      8   3  82 NW23G29   30.29R FOG     WCI -13
MILLARD        MOCLDY    10   5  79 NW5       30.28R HAZE    WCI   2
OFFUTT AFB     PTCLDY    11   5  76 NW13G26   30.24R WCI  -4
PLATTSMOUTH    CLOUDY    10   5  80 NW18G28   30.22R HAZE    WCI  -8
WAHOO          MOCLDY     7   1  78 MISG      30.28R HAZE
$$


USA.gov is the U.S. government's official web portal to all federal, state and local government web resources and services.